Content
SEND FEEDBACK

Daily
Averages
Monthly
Summary
Canada

MONTREAL, QUEBEC


Home > North America > Canada > Quebec
Elevation: 118 feet     Latitude: 45 28N     Longitude: 073 45W

WEATHER
 
SELECT A DAY
Number of Records: 198,066;   Date Range: 1/1/95 - 7/23/14
 
SHARE

PRINT THIS DATA

[ ← Previous Day ]
WEATHER ALMANAC - APRIL 28, 2013
[ Next Day → ]
[ °C ]   °F
Weather ElementAverageHighLow
Temperature57 °F69.8 °F (5:00 pm)39.2 °F (6:00 am)
Dewpoint33.7 °F37.4 °F (7:00 am)32 °F (3:00 am)
Humidity43.7 %81 % (7:00 am)19 % (2:00 pm)
Barometer30.22 in30.32 in (1:00 am)30.09 in (11:00 pm)
Wind Speed4.4 mph6.9 mph (7:00 am)
Weather ElementAverage
Visibility23.7 mi
Wind DirectionESE (97.8 °)

Weather ElementTotal
Precipitation---
Heating Degree Days10.5 (Base 65)
Growing Degree Days4.5 (Base 50)
Averaged from 27 records on April 28, 2013
WEATHER CONDITIONS BREAKOUT
WIND DIRECTION BREAKOUT
WEATHER BY HOUR - APRIL 28, 2013
[ °C ]   °F
Local TimeTemperatureDewpointHumidityBarometerVisibilityWind DirectionWind SpeedGust SpeedPrecipitationEventsConditions
1:00 AM46.4 °F35.6 °F66 %30.32 in15.0 miSE (130°)2.3 mphClear
2:00 AM44.0 °F34.0 °F57 %30.31 in15.0 miNNE (20°)2.3 mphClear
2:00 AM42.8 °F33.8 °F70 %30.31 in15.0 miNE (40°)2.3 mphPartly Cloudy
3:00 AM42.8 °F32.0 °F66 %30.29 in15.0 miNE (40°)3.5 mphPartly Cloudy
4:00 AM44.6 °F33.8 °F66 %30.28 in15.0 miSE (140°)2.3 mphPartly Cloudy
5:00 AM42.8 °F32.0 °F66 %30.27 in15.0 miCalmClear
6:00 AM39.2 °F32.0 °F75 %30.28 in30.0 miNNW (340°)5.8 mphClear
7:00 AM42.8 °F37.4 °F81 %30.28 in30.0 miNE (40°)6.9 mphClear
8:00 AM49.0 °F37.0 °F52 %30.30 in28.0 miNE (40°)4.6 mphClear
8:00 AM50.0 °F37.4 °F62 %30.30 in30.0 miNE (40°)3.5 mphClear
9:00 AM53.6 °F32.0 °F44 %30.30 in30.0 miNE (50°)4.6 mphClear
10:00 AM57.2 °F33.8 °F41 %30.29 in30.0 miEast (100°)4.6 mphPartly Cloudy
11:00 AM60.8 °F33.8 °F36 %30.28 in30.0 miSSE (150°)6.9 mphMostly Cloudy
12:00 PM64.4 °F33.8 °F32 %30.26 in30.0 miSSE (150°)3.5 mphMostly Cloudy
1:00 PM66.2 °F35.6 °F32 %30.24 in30.0 miSE (130°)5.8 mphScattered Clouds
2:00 PM66.0 °F33.0 °F19 %30.21 in28.0 miEast (100°)2.3 mphClear
2:00 PM66.2 °F33.8 °F30 %30.21 in30.0 miEast (90°)4.6 mphScattered Clouds
3:00 PM68.0 °F35.6 °F30 %30.19 in30.0 miSSW (210°)2.3 mphPartly Cloudy
4:00 PM68.0 °F32.0 °F26 %30.16 in30.0 miESE (120°)4.6 mphMostly Cloudy
5:00 PM69.8 °F33.8 °F27 %30.15 in30.0 miNE (50°)3.5 mphScattered Clouds
6:00 PM69.8 °F32.0 °F25 %30.13 in30.0 miSE (140°)5.8 mphScattered Clouds
7:00 PM68.0 °F32.0 °F26 %30.12 in30.0 miESE (120°)6.9 mphMostly Cloudy
8:00 PM65.0 °F33.0 °F19 %30.11 in15.0 miEast (100°)5.8 mphClear
8:00 PM66.2 °F32.0 °F28 %30.11 in15.0 miEast (90°)5.8 mphPartly Cloudy
9:00 PM64.4 °F32.0 °F30 %30.11 in15.0 miEast (80°)5.8 mphMostly Cloudy
10:00 PM62.6 °F33.8 °F34 %30.10 in15.0 miENE (70°)6.9 mphMostly Cloudy
11:00 PM59.0 °F33.8 °F39 %30.09 in15.0 miENE (60°)6.9 mphPartly Cloudy
Hourly data recorded from CYUL, located miles away from Montreal, Quebec







STORIES FROM OUR PARTNERS